Showing default

ALISIO-1, 58562

Orbit data source: Space-Track

ALISIO-1, 58562 is a payload satellite owned by IAC (ES) in SSO that was launched on Fri, 01 Dec 2023 UTC via an FALCON 9 launch vehicle from the Air Force Western Test Range (AFWTR). Payload-class satellites include a variety of spacecraft equipped with specific instruments for various scientific and technological missions. These include communications satellites like Starlink; space stations such as the ISS; scientific satellites like the Hubble; Earth observation satellites from companies like Planet Labs, Umbra, and HawkEye 360; GPS; miniature CubeSats for education and research; and military/defense satellites.

Loading next visibility...
Identifier
58562, 2023-185M
Orbit
SSO
Country
Flag of ESES / SPN
Related business
Manufacturer
IAC
Mission
Operational Amateur Imaging
Bus & Motor
CUBESAT 6U, Unknown motor
Mass
10 kg wet, 10 kg dry
Launch date (UTC)
2023-12-01 (2 years ago)
Launch vehicle
FALCON 9
Launch site
Air Force Western Test Range (AFWTR)
Object type
Payload
Rocket body
Debris
Shape & HBR
Box, 0.1 m
Radar Cross Section
0.080 m², Medium (>0.1 m² and < 1m²)

Expand to show TLE details & history
Last TLE update: 8 hours ago

TLE from 8 hours ago
0 ALISIO-1
1 58562U 23185M   25305.60679988  .00005283  00000-0  28991-3 0  9993
2 58562  97.5645  15.2261 0007152  36.2113 323.9602 15.14558401104073
Epoch: 2025-11-01T14:33Z
TLE epoch observation values (Epoch: 2025-11-01T14:33:47.509Z)
Latitude
-0°
Longitude
115.64369°
Altitude
521.408 km
Speed
7.605 km/s
True Right ascension
01h 00m 54s
True Declination
0° 00' 00"
Sunlit
Object was in full shadow at epoch
Visualization orbit readout
Latitude
Unknown
Longitude
Unknown
Altitude
Unknown
Speed
Unknown
Apparent Right ascension
Unknown
Apparent Declination
Unknown
Sunlit
N/A
Visualization observer readout
Local Sidereal Time
18:31:18
Azimuth
Unknown
Elevation
Unknown
Doppler factor
Unknown
Orbital elements
Apogee altitude
524.233 km
Perigee altitude
514.366 km
Semi-major axis
6,897.436 km
Eccentricity
0.00072
Inclination
97.5645°
RAAN
15.2261°
Arg. of periapsis
36.2113°
True anomaly
323.91195°
Mean anomaly
323.9602°
Eccentric anomaly
323.93608°
Mean motion
3.78889 °/min
Orbital period
95.01 mins
BSTAR
0.00028991
Loading maneuver chart data...
Computing Atmospheric mass density...
Loading historical data...
Loading historical data...
Loading historical data...
Loading historical data...
Loading historical data...
Loading historical data...
Loading historical data...

Documentation

Showing up to 5 results
|